Location: Unspecified
(0.0000°N, 0.0000°E)
Time: 13:44:32
(UTC+00:00)

STARLINK-32480 - Visible Passes

Search period start: 09 December 2025 00:00
Search period end: 19 December 2025 00:00
Orbit: 481 x 484 km, 43.0° (Epoch: 09 December)

Date Brightness Start Highest point End Pass type
(mag) Time Alt. Az. Time Alt. Az. Time Alt. Az.
13 Dec 5.8 20:04:51 10° SW 20:06:22 22° WSW 20:06:22 22° WSW visible
14 Dec 3.9 19:36:44 10° SW 19:39:59 55° W 19:39:59 55° W visible
15 Dec 3.5 19:08:33 10° SW 19:12:17 67° NW 19:13:34 38° NNE visible
16 Dec 3.5 18:40:19 10° SW 18:44:03 71° NW 18:47:07 15° NE visible
